Vorticity
6 11 17 10 10 11 10 9 8 17 16 -2 2 -1 9 5 6 6 8 6 1 3 17 13 10 10 16 17 13 12 13 12 11 12 9 6 7 8 5 8 5 6 6 7
7 5 7 2 2 3 5 7 15 5 10 -5 8 9 3 8 3 7 9 13 15 13 23 20 16 15 9 9 12 13 11 11 11 10 9 6 7 9 8 7 5 6 5 6
-3 1 3 5 7 11 8 4 9 0 11 17 2 -6 2 9 3 9 18 18 20 16 21 20 15 15 15 9 10 12 11 9 12 12 8 6 8 10 6 5 6 6 7 4
8 7 9 10 9 8 12 8 9 8 7 14 9 3 2 6 -1 9 16 21 17 22 19 26 25 16 14 14 23 6 13 6 14 13 10 7 10 7 7 7 8 6 7 7
7 9 9 8 9 9 9 9 6 8 8 9 12 17 19 7 1 9 10 24 24 15 16 12 0 16 11 7 11 -1 34 2 2 8 9 5 9 8 8 10 8 6 8 8
13 8 10 8 9 9 10 8 12 11 10 16 18 15 21 19 5 25 7 25 19 10 19 11 6 8 3 5 3 5 -7 17 28 2 3 9 4 7 7 6 7 7 7 7
14 8 7 9 8 11 13 11 11 13 13 12 21 17 12 7 22 7 9 17 17 7 16 11 0 16 2 7 8 13 21 8 31 18 -0 5 15 10 9 8 6 7 7 7
13 12 6 11 6 5 10 17 8 8 11 12 15 11 12 7 11 11 8 24 22 8 6 16 28 6 15 4 -3 -3 -7 13 56 3 12 3 6 15 10 8 8 5 6 6
16 15 9 9 12 12 19 2 -0 24 17 10 11 2 7 16 15 7 9 5 11 39 11 5 8 2 14 8 4 2 9 1 9 39 8 8 4 6 12 7 7 6 6 6
14 17 13 12 4 6 7 7 4 18 18 5 3 2 5 9 12 10 -0 2 1 15 -13 24 0 -16 8 11 6 7 -3 6 9 50 5 19 1 6 14 2 6 6 5 7
15 9 14 0 31 23 7 5 13 20 9 7 8 6 9 5 9 14 2 11 -3 1 6 3 6 -3 3 11 1 11 5 -8 16 -6 34 14 3 18 16 6 8 6 8 7
23 1 18 33 18 14 16 19 5 26 10 3 8 11 10 5 0 2 3 6 6 7 8 21 14 21 -12 17 7 6 5 1 17 12 50 7 19 12 -0 10 8 7 8 6
-8 13 -1 23 2 8 8 16 27 22 16 7 1 9 7 8 3 8 0 13 15 41 23 21 3 -3 19 13 5 9 2 15 6 3 51 13 1 10 10 7 8 6 6 6
24 34 17 14 13 14 44 26 16 6 4 5 5 -2 17 20 9 22 28 31 37 27 31 35 6 16 -6 -3 12 6 12 17 14 16 0 44 12 1 11 8 6 9 6 6
9 29 15 21 38 15 3 2 1 -2 5 0 16 5 29 6 28 30 33 25 23 22 36 10 24 29 -7 3 5 13 6 7 10 5 15 47 12 4 13 11 10 7 7 7
14 32 25 14 2 4 8 10 6 7 17 9 13 21 34 37 31 32 36 25 23 25 30 24 -11 27 4 -1 -1 12 -19 12 -11 7 6 45 -4 15 13 11 7 9 7 6
29 42 19 16 5 4 6 9 5 14 17 14 34 30 9 13 19 25 28 23 26 24 20 28 15 -15 -5 5 0 18 0 12 11 -1 12 22 2 12 13 8 8 7 8 5
35 12 4 1 3 -2 10 3 19 16 15 33 3 10 5 15 15 38 23 25 32 25 30 24 29 24 12 1 4 6 -2 29 3 4 12 35 4 12 9 9 9 9 7 7
2 1 1 9 -4 6 19 -2 16 18 20 13 -1 9 2 3 11 31 23 35 23 24 33 12 8 12 17 18 -1 18 -1 38 9 4 19 15 8 10 8 9 8 9 6 14
4 4 4 7 6 16 1 13 10 24 12 21 -2 6 16 0 26 13 21 23 22 47 36 20 26 27 18 34 16 19 -31 13 9 26 14 9 6 8 10 9 10 10 6 17
5 8 8 21 13 13 16 7 24 26 12 19 13 6 3 -2 30 -10 3 10 25 0 42 -0 19 16 5 -4 23 6 12 11 26 11 17 5 7 9 10 9 12 5 11 15
4 11 0 -3 10 23 19 9 40 20 4 18 -8 16 10 4 30 11 8 8 11 29 33 0 3 22 3 32 19 6 20 15 22 19 6 3 8 11 9 13 8 8 15 7
6 9 2 8 -14 31 20 17 37 17 4 16 6 -9 19 10 5 14 18 21 19 30 31 5 3 17 14 20 -12 44 -2 24 13 19 7 0 12 10 11 11 6 9 15 15
8 -6 -6 4 -1 11 3 19 42 17 -0 11 6 12 6 6 17 10 12 22 19 18 24 32 23 -5 25 28 26 8 -2 14 10 20 12 5 11 9 12 10 8 6 9 7
-2 1 9 2 -1 14 4 14 40 19 7 2 12 8 1 7 14 17 17 19 16 45 -10 -2 37 7 39 22 26 -15 3 2 16 32 2 9 5 11 8 10 7 4 4 4
2 -1 -3 5 -0 5 10 6 20 34 10 9 12 15 9 6 -1 19 25 19 10 10 16 13 34 8 42 -16 16 31 3 19 17 25 1 4 11 11 10 10 6 6 5 8
Height
5792 5790 5790 5785 5780 5778 5776 5775 5773 5773 5769 5766 5767 5769 5766 5761 5755 5749 5744 5742 5741 5740 5742 5741 5741 5743 5746 5749 5752 5755 5757 5758 5759 5762 5763 5764 5767 5769 5770 5773 5774 5777 5780 5782
5780 5779 5774 5771 5768 5764 5760 5760 5759 5759 5753 5750 5752 5755 5753 5749 5744 5734 5728 5729 5729 5730 5733 5733 5732 5731 5733 5736 5740 5743 5747 5750 5752 5753 5755 5756 5760 5763 5763 5766 5767 5769 5772 5774
5768 5766 5761 5757 5753 5749 5746 5742 5741 5740 5738 5734 5734 5742 5742 5739 5730 5722 5717 5717 5717 5718 5721 5721 5722 5722 5725 5725 5728 5733 5736 5740 5742 5746 5747 5749 5752 5756 5757 5757 5760 5762 5765 5767
5755 5752 5746 5743 5739 5734 5733 5728 5726 5724 5720 5721 5718 5718 5730 5726 5718 5713 5709 5706 5707 5709 5708 5710 5710 5711 5715 5716 5717 5722 5726 5730 5734 5737 5741 5743 5746 5748 5750 5751 5754 5755 5757 5760
5740 5736 5733 5729 5726 5721 5721 5715 5713 5711 5707 5706 5706 5697 5717 5714 5706 5704 5698 5697 5698 5700 5701 5702 5704 5704 5706 5708 5710 5713 5715 5719 5724 5729 5732 5734 5738 5741 5743 5746 5746 5749 5751 5753
5726 5721 5717 5714 5711 5706 5704 5701 5697 5696 5695 5694 5697 5687 5699 5700 5697 5694 5689 5688 5691 5691 5692 5694 5696 5699 5700 5702 5704 5707 5708 5712 5714 5718 5722 5725 5729 5734 5736 5738 5739 5742 5744 5746
5710 5706 5702 5701 5697 5694 5692 5687 5684 5682 5680 5680 5683 5676 5679 5684 5682 5680 5682 5683 5682 5683 5683 5685 5688 5691 5692 5696 5698 5701 5704 5706 5708 5711 5713 5716 5718 5724 5729 5732 5733 5735 5737 5738
5693 5690 5688 5686 5684 5682 5679 5676 5673 5664 5667 5668 5669 5666 5671 5671 5671 5670 5671 5673 5675 5675 5674 5674 5679 5682 5685 5689 5692 5693 5695 5698 5699 5700 5706 5708 5711 5712 5719 5724 5726 5728 5730 5732
5674 5674 5674 5673 5670 5668 5666 5664 5661 5655 5653 5650 5657 5656 5659 5662 5663 5663 5662 5662 5664 5665 5667 5666 5668 5676 5678 5680 5685 5687 5688 5690 5691 5693 5695 5701 5703 5706 5708 5715 5720 5722 5723 5727
5661 5657 5662 5658 5657 5656 5652 5649 5648 5643 5638 5638 5641 5644 5643 5649 5652 5652 5652 5652 5654 5658 5656 5656 5660 5664 5669 5673 5676 5679 5681 5684 5684 5685 5687 5691 5696 5698 5701 5708 5713 5717 5718 5720
5648 5647 5646 5644 5643 5642 5639 5636 5634 5632 5627 5625 5626 5632 5633 5635 5638 5642 5641 5639 5639 5644 5649 5648 5649 5654 5657 5664 5667 5671 5674 5676 5677 5676 5679 5683 5689 5692 5696 5702 5707 5711 5713 5714
5636 5630 5631 5629 5627 5627 5628 5625 5622 5617 5616 5615 5613 5619 5617 5618 5621 5622 5622 5621 5623 5626 5632 5637 5641 5644 5649 5654 5659 5662 5665 5667 5669 5669 5671 5677 5681 5684 5691 5696 5701 5705 5707 5708
5622 5616 5616 5615 5615 5614 5613 5613 5610 5608 5607 5607 5601 5608 5604 5601 5596 5598 5598 5597 5598 5602 5607 5618 5626 5634 5637 5642 5649 5653 5657 5660 5661 5662 5663 5669 5672 5679 5686 5692 5697 5699 5701 5703
5604 5603 5603 5604 5602 5603 5602 5599 5599 5598 5596 5593 5592 5588 5586 5579 5571 5573 5573 5565 5571 5578 5586 5598 5610 5620 5626 5631 5639 5645 5649 5653 5655 5658 5660 5664 5668 5675 5681 5687 5692 5694 5695 5699
5594 5593 5590 5589 5590 5591 5591 5590 5589 5586 5580 5577 5579 5571 5564 5555 5551 5550 5550 5547 5550 5560 5569 5584 5595 5604 5613 5621 5630 5637 5643 5648 5650 5654 5657 5660 5664 5670 5677 5683 5687 5690 5691 5695
5582 5581 5580 5580 5581 5582 5582 5582 5580 5576 5568 5563 5558 5556 5545 5544 5536 5532 5532 5532 5536 5544 5555 5569 5580 5591 5602 5612 5620 5628 5636 5642 5645 5650 5653 5656 5660 5667 5673 5678 5683 5685 5688 5692
5572 5572 5572 5572 5574 5574 5575 5573 5568 5562 5555 5551 5550 5545 5539 5536 5529 5523 5521 5521 5525 5531 5540 5553 5565 5580 5593 5602 5612 5621 5629 5633 5640 5645 5647 5652 5656 5664 5670 5675 5679 5681 5685 5688
5564 5565 5566 5566 5567 5567 5565 5561 5554 5553 5549 5548 5544 5540 5535 5530 5524 5517 5515 5517 5521 5527 5534 5544 5555 5569 5581 5591 5603 5612 5617 5620 5630 5638 5642 5647 5654 5661 5666 5671 5675 5678 5682 5685
5558 5559 5560 5560 5560 5560 5554 5549 5546 5545 5546 5542 5540 5537 5534 5528 5522 5516 5516 5515 5517 5523 5531 5540 5549 5558 5571 5583 5597 5607 5612 5620 5626 5633 5637 5643 5650 5657 5663 5667 5671 5676 5680 5682
5552 5554 5556 5555 5553 5549 5544 5542 5540 5536 5539 5536 5537 5535 5532 5527 5522 5518 5517 5516 5520 5523 5529 5537 5547 5555 5568 5581 5592 5600 5604 5614 5621 5626 5633 5640 5648 5654 5660 5665 5670 5674 5677 5679
5549 5551 5552 5549 5545 5544 5541 5535 5532 5532 5537 5533 5534 5532 5529 5526 5522 5519 5519 5519 5519 5522 5527 5536 5544 5555 5567 5577 5586 5595 5604 5610 5616 5622 5630 5637 5645 5651 5658 5663 5668 5671 5673 5678
5546 5548 5548 5544 5541 5539 5535 5530 5527 5529 5529 5530 5531 5529 5527 5525 5523 5521 5520 5519 5519 5522 5529 5538 5547 5558 5567 5573 5582 5590 5599 5605 5612 5619 5627 5635 5643 5650 5656 5662 5665 5668 5672 5676
5542 5544 5544 5543 5540 5534 5529 5524 5522 5524 5526 5526 5527 5527 5525 5524 5523 5521 5520 5520 5521 5524 5531 5539 5548 5554 5562 5569 5578 5587 5593 5601 5610 5617 5624 5633 5641 5648 5654 5659 5663 5667 5671 5675
5537 5539 5540 5539 5536 5531 5526 5522 5519 5521 5523 5522 5524 5524 5524 5524 5522 5521 5521 5521 5521 5525 5533 5542 5549 5556 5562 5568 5575 5582 5592 5599 5607 5615 5622 5632 5639 5647 5652 5656 5662 5666 5671 5676
5532 5534 5535 5535 5533 5529 5525 5521 5518 5518 5520 5520 5520 5521 5521 5522 5523 5521 5521 5521 5523 5527 5535 5544 5551 5558 5563 5566 5577 5585 5592 5599 5606 5613 5620 5629 5638 5645 5649 5655 5660 5666 5671 5676
5528 5529 5529 5530 5529 5527 5523 5519 5516 5515 5516 5516 5516 5519 5519 5520 5523 5521 5521 5522 5524 5528 5535 5544 5549 5556 5563 5569 5575 5584 5591 5598 5604 5611 5617 5627 5636 5642 5648 5654 5660 5666 5671 5676